Time,TemperatureF,DewpointF,PressureIn,WindDirection,WindDirectionDegrees,WindSpeedMPH,WindSpeedGustMPH,Humidity,HourlyPrecipIn,Conditions,Clouds,dailyrainin,SoftwareType,DateUTC
2013-10-01 00:01:00,56.0,55.5,29.86,SE,133,0.0,0.0,98,0.00,,---,0.00,VWS V13.01,2013-10-01 04:01:00,
2013-10-01 00:02:00,56.0,55.5,29.86,SE,133,0.0,0.0,98,0.00,,---,0.00,VWS V13.01,2013-10-01 04:02:00,
2013-10-01 00:03:00,56.0,55.5,29.86,SE,133,0.0,0.0,98,0.00,,---,0.00,VWS V13.01,2013-10-01 04:03:00,
2013-10-01 00:04:00,55.9,55.3,29.86,SE,133,0.0,0.0,98,0.00,,---,0.00,VWS V13.01,2013-10-01 04:04:00,
2013-10-01 00:09:00,56.0,55.5,29.86,SE,133,0.0,0.0,98,0.00,,---,0.00,VWS V13.01,2013-10-01 04:09:00,
2013-10-01 00:14:00,56.0,55.5,29.86,SE,133,0.0,0.0,98,0.00,,---,0.00,VWS V13.01,2013-10-01 04:14:00,
2013-10-01 00:19:00,55.9,55.3,29.86,SE,133,0.0,0.0,98,0.00,,---,0.00,VWS V13.01,2013-10-01 04:19:00,
2013-10-01 00:24:00,55.7,55.2,29.86,SE,133,0.0,0.0,98,0.00,,---,0.00,VWS V13.01,2013-10-01 04:24:00,
2013-10-01 00:30:00,55.4,54.8,29.86,SE,133,0.0,0.0,98,0.00,,---,0.00,VWS V13.01,2013-10-01 04:30:00,
2013-10-01 00:35:00,55.2,54.7,29.86,SE,133,0.0,0.0,98,0.00,,---,0.00,VWS V13.01,2013-10-01 04:35:00,
2013-10-01 00:40:00,54.9,54.3,29.86,SE,133,0.0,0.0,98,0.00,,---,0.00,VWS V13.01,2013-10-01 04:40:00,
2013-10-01 00:45:00,54.7,54.2,29.86,SE,133,0.0,0.0,98,0.00,,---,0.00,VWS V13.01,2013-10-01 04:45:00,
2013-10-01 00:50:00,54.5,54.0,29.86,SE,133,0.0,0.0,98,0.00,,---,0.00,VWS V13.01,2013-10-01 04:50:00,
2013-10-01 00:55:00,54.4,53.8,29.86,SE,133,0.0,0.0,98,0.00,,---,0.00,VWS V13.01,2013-10-01 04:55:00,
2013-10-01 01:01:00,54.4,53.8,29.86,SE,133,0.0,0.0,98,0.00,,---,0.00,VWS V13.01,2013-10-01 05:01:00,
2013-10-01 01:06:00,54.5,54.0,29.86,SE,133,0.0,0.0,98,0.00,,---,0.00,VWS V13.01,2013-10-01 05:06:00,
2013-10-01 01:11:00,54.7,54.2,29.86,SE,133,0.0,0.0,98,0.00,,---,0.00,VWS V13.01,2013-10-01 05:11:00,
2013-10-01 01:16:00,54.9,54.3,29.86,SE,133,0.0,0.0,98,0.00,,---,0.00,VWS V13.01,2013-10-01 05:16:00,
2013-10-01 01:21:00,55.0,54.5,29.87,SE,133,0.0,0.0,98,0.00,,---,0.00,VWS V13.01,2013-10-01 05:21:00,
2013-10-01 01:26:00,55.2,54.7,29.87,SE,133,0.0,0.0,98,0.00,,---,0.00,VWS V13.01,2013-10-01 05:26:00,
2013-10-01 01:31:00,55.3,54.8,29.87,SE,133,0.0,0.0,98,0.00,,---,0.00,VWS V13.01,2013-10-01 05:31:00,
2013-10-01 01:37:00,55.4,54.8,29.87,SE,133,0.0,0.0,98,0.00,,---,0.00,VWS V13.01,2013-10-01 05:37:00,
2013-10-01 01:42:00,55.5,55.0,29.87,SE,133,0.0,0.0,98,0.00,,---,0.00,VWS V13.01,2013-10-01 05:42:00,
2013-10-01 01:47:00,55.6,55.0,29.87,SE,133,0.0,0.0,98,0.00,,---,0.00,VWS V13.01,2013-10-01 05:47:00,
2013-10-01 01:52:00,55.7,55.2,29.87,SE,133,0.0,0.0,98,0.00,,---,0.00,VWS V13.01,2013-10-01 05:52:00,
2013-10-01 01:57:00,55.7,55.2,29.87,SE,133,0.0,0.0,98,0.00,,---,0.00,VWS V13.01,2013-10-01 05:57:00,
2013-10-01 02:02:00,55.7,55.4,29.87,SE,133,0.0,0.0,99,0.00,,---,0.00,VWS V13.01,2013-10-01 06:02:00,
2013-10-01 02:07:00,55.7,55.4,29.87,SE,133,0.0,0.0,99,0.00,,---,0.00,VWS V13.01,2013-10-01 06:07:00,
2013-10-01 02:12:00,55.7,55.4,29.87,SE,133,0.0,0.0,99,0.00,,---,0.00,VWS V13.01,2013-10-01 06:12:00,
2013-10-01 02:18:00,55.7,55.4,29.86,SE,133,0.0,0.0,99,0.00,,---,0.00,VWS V13.01,2013-10-01 06:18:00,
2013-10-01 02:23:00,55.7,55.4,29.86,SE,133,0.0,0.0,99,0.00,,---,0.00,VWS V13.01,2013-10-01 06:23:00,
2013-10-01 02:28:00,55.7,55.4,29.86,SE,133,0.0,0.0,99,0.00,,---,0.00,VWS V13.01,2013-10-01 06:28:00,
2013-10-01 02:33:00,55.7,55.4,29.86,SE,133,0.0,0.0,99,0.00,,---,0.00,VWS V13.01,2013-10-01 06:33:00,
2013-10-01 02:38:00,55.5,55.2,29.86,SE,133,0.0,0.0,99,0.00,,---,0.00,VWS V13.01,2013-10-01 06:38:00,
2013-10-01 02:43:00,55.3,54.8,29.86,SE,133,0.0,0.0,98,0.00,,---,0.00,VWS V13.01,2013-10-01 06:43:00,
2013-10-01 02:48:00,55.1,54.5,29.86,SE,133,0.0,0.0,98,0.00,,---,0.00,VWS V13.01,2013-10-01 06:48:00,
2013-10-01 02:54:00,55.1,54.8,29.86,SE,133,0.0,0.0,99,0.00,,---,0.00,VWS V13.01,2013-10-01 06:54:00,
2013-10-01 02:59:00,54.9,54.6,29.86,SE,133,0.0,0.0,99,0.00,,---,0.00,VWS V13.01,2013-10-01 06:59:00,
2013-10-01 03:04:00,55.0,54.7,29.86,SE,133,0.0,0.0,99,0.00,,---,0.00,VWS V13.01,2013-10-01 07:04:00,
2013-10-01 03:09:00,55.0,54.7,29.86,SE,133,0.0,0.0,99,0.00,,---,0.00,VWS V13.01,2013-10-01 07:09:00,
2013-10-01 03:14:00,55.0,54.7,29.85,SE,133,0.0,0.0,99,0.00,,---,0.00,VWS V13.01,2013-10-01 07:14:00,
2013-10-01 03:20:00,54.9,54.6,29.86,SE,133,0.0,0.0,99,0.00,,---,0.00,VWS V13.01,2013-10-01 07:20:00,
2013-10-01 03:26:00,54.9,54.6,29.86,SE,133,0.0,0.0,99,0.00,,---,0.00,VWS V13.01,2013-10-01 07:26:00,
2013-10-01 03:31:00,55.0,54.7,29.86,SE,133,0.0,0.0,99,0.00,,---,0.00,VWS V13.01,2013-10-01 07:31:00,
2013-10-01 03:36:00,55.0,54.7,29.85,SE,133,0.0,0.0,99,0.00,,---,0.00,VWS V13.01,2013-10-01 07:36:00,
2013-10-01 03:42:00,54.9,54.6,29.85,SE,133,0.0,0.0,99,0.00,,---,0.00,VWS V13.01,2013-10-01 07:42:00,
2013-10-01 03:47:00,54.8,54.5,29.85,SE,133,0.0,0.0,99,0.00,,---,0.00,VWS V13.01,2013-10-01 07:47:00,
2013-10-01 03:53:00,54.8,54.5,29.85,SE,133,0.0,0.0,99,0.00,,---,0.00,VWS V13.01,2013-10-01 07:53:00,
2013-10-01 03:58:00,54.8,54.5,29.85,SE,133,0.0,0.0,99,0.00,,---,0.00,VWS V13.01,2013-10-01 07:58:00,
2013-10-01 04:03:00,54.6,54.3,29.85,SE,133,0.0,0.0,99,0.00,,---,0.00,VWS V13.01,2013-10-01 08:03:00,
2013-10-01 04:08:00,54.5,54.2,29.85,SE,133,0.0,0.0,99,0.00,,---,0.00,VWS V13.01,2013-10-01 08:08:00,
2013-10-01 04:13:00,54.4,54.1,29.85,SE,133,0.0,0.0,99,0.00,,---,0.00,VWS V13.01,2013-10-01 08:13:00,
2013-10-01 04:20:00,54.4,54.1,29.85,SE,133,0.0,0.0,99,0.01,,---,0.01,VWS V13.01,2013-10-01 08:20:00,
2013-10-01 04:25:00,54.3,54.0,29.85,SE,133,0.0,0.0,99,0.01,,---,0.01,VWS V13.01,2013-10-01 08:25:00,
2013-10-01 04:30:00,54.1,53.8,29.85,SE,133,0.0,0.0,99,0.01,,---,0.01,VWS V13.01,2013-10-01 08:30:00,
2013-10-01 04:36:00,54.1,53.8,29.85,SE,133,0.0,0.0,99,0.01,,---,0.01,VWS V13.01,2013-10-01 08:36:00,
2013-10-01 04:41:00,54.3,54.0,29.85,SE,133,0.0,0.0,99,0.01,,---,0.01,VWS V13.01,2013-10-01 08:41:00,
2013-10-01 04:47:00,54.4,54.1,29.85,SE,133,0.0,0.0,99,0.01,,---,0.01,VWS V13.01,2013-10-01 08:47:00,
2013-10-01 04:52:00,54.4,54.1,29.86,SE,133,0.0,0.0,99,0.01,,---,0.01,VWS V13.01,2013-10-01 08:52:00,
2013-10-01 04:57:00,54.4,54.1,29.86,SE,133,0.0,1.0,99,0.01,,---,0.01,VWS V13.01,2013-10-01 08:57:00,
2013-10-01 05:02:00,54.3,54.0,29.86,SE,133,0.0,0.0,99,0.01,,---,0.01,VWS V13.01,2013-10-01 09:02:00,
2013-10-01 05:07:00,54.2,53.9,29.86,SE,133,0.0,0.0,99,0.01,,---,0.01,VWS V13.01,2013-10-01 09:07:00,
2013-10-01 05:12:00,54.2,53.9,29.86,SE,133,0.0,0.0,99,0.01,,---,0.01,VWS V13.01,2013-10-01 09:12:00,
2013-10-01 05:18:00,54.1,53.8,29.86,SE,133,0.0,0.0,99,0.01,,---,0.01,VWS V13.01,2013-10-01 09:18:00,
2013-10-01 05:23:00,54.0,53.7,29.87,SE,133,0.0,0.0,99,0.01,,---,0.01,VWS V13.01,2013-10-01 09:23:00,
2013-10-01 05:29:00,53.8,53.5,29.87,SE,133,0.0,0.0,99,0.01,,---,0.01,VWS V13.01,2013-10-01 09:29:00,
2013-10-01 05:34:00,53.7,53.4,29.87,SE,133,0.0,0.0,99,0.00,,---,0.01,VWS V13.01,2013-10-01 09:34:00,
2013-10-01 05:39:00,53.7,53.4,29.87,SE,133,0.0,0.0,99,0.00,,---,0.01,VWS V13.01,2013-10-01 09:39:00,
2013-10-01 05:45:00,53.7,53.4,29.87,SE,133,0.0,0.0,99,0.00,,---,0.01,VWS V13.01,2013-10-01 09:45:00,
2013-10-01 05:50:00,53.7,53.4,29.87,SE,133,0.0,0.0,99,0.00,,---,0.01,VWS V13.01,2013-10-01 09:50:00,
2013-10-01 05:55:00,53.7,53.4,29.87,SE,133,0.0,0.0,99,0.00,,---,0.01,VWS V13.01,2013-10-01 09:55:00,
2013-10-01 06:00:00,53.7,53.4,29.88,SE,133,0.0,0.0,99,0.00,,---,0.01,VWS V13.01,2013-10-01 10:00:00,
2013-10-01 06:06:00,53.7,53.4,29.88,SE,133,0.0,0.0,99,0.00,,---,0.01,VWS V13.01,2013-10-01 10:06:00,
2013-10-01 06:12:00,53.7,53.4,29.88,SE,133,0.0,0.0,99,0.00,,---,0.01,VWS V13.01,2013-10-01 10:12:00,
2013-10-01 06:18:00,53.8,53.5,29.88,SE,133,0.0,0.0,99,0.00,,---,0.01,VWS V13.01,2013-10-01 10:18:00,
2013-10-01 06:23:00,53.9,53.6,29.88,SE,133,0.0,0.0,99,0.00,,---,0.01,VWS V13.01,2013-10-01 10:23:00,
2013-10-01 06:28:00,53.9,53.6,29.88,SE,133,0.0,0.0,99,0.00,,---,0.01,VWS V13.01,2013-10-01 10:28:00,
2013-10-01 06:33:00,54.1,53.8,29.88,SE,133,0.0,0.0,99,0.00,,---,0.01,VWS V13.01,2013-10-01 10:33:00,
2013-10-01 06:39:00,54.1,53.8,29.88,SE,133,0.0,0.0,99,0.00,,---,0.01,VWS V13.01,2013-10-01 10:39:00,
2013-10-01 06:44:00,54.1,53.8,29.88,SE,133,0.0,0.0,99,0.00,,---,0.01,VWS V13.01,2013-10-01 10:44:00,
2013-10-01 06:49:00,54.2,53.9,29.89,SE,133,0.0,0.0,99,0.00,,---,0.01,VWS V13.01,2013-10-01 10:49:00,
2013-10-01 06:54:00,54.3,54.0,29.89,SE,133,0.0,0.0,99,0.00,,---,0.01,VWS V13.01,2013-10-01 10:54:00,
2013-10-01 06:59:00,54.2,53.9,29.88,SE,133,0.0,0.0,99,0.00,,---,0.01,VWS V13.01,2013-10-01 10:59:00,
2013-10-01 07:05:00,54.3,54.0,29.88,SE,133,0.0,0.0,99,0.00,,---,0.01,VWS V13.01,2013-10-01 11:05:00,
2013-10-01 07:10:00,54.4,54.1,29.88,SE,133,0.0,0.0,99,0.00,,---,0.01,VWS V13.01,2013-10-01 11:10:00,
2013-10-01 07:15:00,54.4,54.1,29.88,SE,133,0.0,0.0,99,0.00,,---,0.01,VWS V13.01,2013-10-01 11:15:00,
2013-10-01 07:20:00,54.4,54.1,29.88,SE,133,0.0,0.0,99,0.00,,---,0.01,VWS V13.01,2013-10-01 11:20:00,
2013-10-01 07:25:00,54.5,54.2,29.88,SE,133,0.0,0.0,99,0.00,,---,0.01,VWS V13.01,2013-10-01 11:25:00,
2013-10-01 07:31:00,54.6,54.3,29.88,SE,133,0.0,0.0,99,0.00,,---,0.01,VWS V13.01,2013-10-01 11:31:00,
2013-10-01 07:36:00,54.6,54.3,29.88,SE,133,0.0,0.0,99,0.00,,---,0.01,VWS V13.01,2013-10-01 11:36:00,
2013-10-01 07:41:00,54.7,54.4,29.88,SE,133,0.0,0.0,99,0.00,,---,0.01,VWS V13.01,2013-10-01 11:41:00,
2013-10-01 07:47:00,54.8,54.5,29.88,SE,133,0.0,0.0,99,0.00,,---,0.01,VWS V13.01,2013-10-01 11:47:00,
2013-10-01 07:52:00,54.8,54.5,29.88,SE,133,0.0,0.0,99,0.00,,---,0.01,VWS V13.01,2013-10-01 11:52:00,
2013-10-01 07:57:00,54.9,54.6,29.88,SE,133,0.0,0.0,99,0.00,,---,0.01,VWS V13.01,2013-10-01 11:57:00,
2013-10-01 08:03:00,54.9,54.6,29.89,SE,133,0.0,0.0,99,0.00,,---,0.01,VWS V13.01,2013-10-01 12:03:00,
2013-10-01 08:09:00,55.1,54.8,29.88,SE,133,0.0,1.0,99,0.00,,---,0.01,VWS V13.01,2013-10-01 12:09:00,
2013-10-01 08:14:00,55.3,55.0,29.89,SE,133,0.0,1.0,99,0.00,,---,0.01,VWS V13.01,2013-10-01 12:14:00,
2013-10-01 08:19:00,55.4,55.1,29.89,SE,133,0.0,1.0,99,0.00,,---,0.01,VWS V13.01,2013-10-01 12:19:00,
2013-10-01 08:24:00,55.5,55.2,29.89,SE,133,0.0,1.0,99,0.00,,---,0.01,VWS V13.01,2013-10-01 12:24:00,
2013-10-01 08:29:00,55.7,55.4,29.89,SE,133,0.0,1.0,99,0.00,,---,0.01,VWS V13.01,2013-10-01 12:29:00,
2013-10-01 08:34:00,55.8,55.5,29.89,SE,133,0.0,0.0,99,0.00,,---,0.01,VWS V13.01,2013-10-01 12:34:00,
2013-10-01 08:40:00,55.9,55.6,29.89,SE,133,0.0,0.0,99,0.00,,---,0.01,VWS V13.01,2013-10-01 12:40:00,
2013-10-01 08:45:00,56.0,55.7,29.89,SE,133,0.0,0.0,99,0.00,,---,0.01,VWS V13.01,2013-10-01 12:45:00,
2013-10-01 08:51:00,56.1,55.8,29.89,SE,133,0.0,0.0,99,0.00,,---,0.01,VWS V13.01,2013-10-01 12:51:00,
2013-10-01 08:56:00,56.2,55.9,29.89,SE,133,0.0,0.0,99,0.00,,---,0.01,VWS V13.01,2013-10-01 12:56:00,
2013-10-01 09:02:00,56.4,56.4,29.89,SE,133,0.0,0.0,100,0.00,,---,0.01,VWS V13.01,2013-10-01 13:02:00,
2013-10-01 09:07:00,56.6,56.3,29.89,SE,133,0.0,1.0,99,0.00,,---,0.01,VWS V13.01,2013-10-01 13:07:00,
2013-10-01 09:12:00,56.7,56.4,29.89,SE,133,0.0,1.0,99,0.00,,---,0.01,VWS V13.01,2013-10-01 13:12:00,
2013-10-01 09:17:00,56.9,56.6,29.89,SE,133,0.0,1.0,99,0.00,,---,0.01,VWS V13.01,2013-10-01 13:17:00,
2013-10-01 09:23:00,57.1,57.1,29.90,SE,133,0.0,1.0,100,0.00,,---,0.01,VWS V13.01,2013-10-01 13:23:00,
2013-10-01 09:28:00,57.3,57.0,29.90,SE,133,0.0,1.0,99,0.00,,---,0.01,VWS V13.01,2013-10-01 13:28:00,
2013-10-01 09:33:00,57.5,57.2,29.90,SE,133,0.0,0.0,99,0.00,,---,0.01,VWS V13.01,2013-10-01 13:33:00,
2013-10-01 09:39:00,57.7,57.7,29.89,SE,133,0.0,0.0,100,0.00,,---,0.01,VWS V13.01,2013-10-01 13:39:00,
2013-10-01 09:44:00,57.8,57.8,29.90,SE,133,0.0,0.0,100,0.00,,---,0.01,VWS V13.01,2013-10-01 13:44:00,
2013-10-01 09:49:00,58.0,58.0,29.89,SE,133,0.0,0.0,100,0.00,,---,0.01,VWS V13.01,2013-10-01 13:49:00,
2013-10-01 09:54:00,58.2,58.2,29.90,SE,133,0.0,0.0,100,0.00,,---,0.01,VWS V13.01,2013-10-01 13:54:00,
2013-10-01 09:59:00,58.5,58.5,29.90,SE,133,0.0,0.0,100,0.00,,---,0.01,VWS V13.01,2013-10-01 13:59:00,
2013-10-01 10:04:00,59.0,59.0,29.90,SE,133,0.0,1.0,100,0.00,,---,0.01,VWS V13.01,2013-10-01 14:04:00,
2013-10-01 10:10:00,59.0,59.0,29.89,SE,133,2.0,3.0,100,0.00,,---,0.01,VWS V13.01,2013-10-01 14:10:00,
2013-10-01 10:15:00,59.2,59.2,29.89,SSW,213,4.0,5.0,100,0.00,,---,0.01,VWS V13.01,2013-10-01 14:15:00,
2013-10-01 10:20:00,59.2,59.2,29.89,SW,225,0.0,5.0,100,0.00,,---,0.01,VWS V13.01,2013-10-01 14:20:00,
2013-10-01 10:25:00,59.7,59.7,29.89,SW,225,0.0,5.0,100,0.00,,---,0.01,VWS V13.01,2013-10-01 14:25:00,
2013-10-01 10:30:00,59.8,59.8,29.89,SW,227,4.0,4.0,100,0.00,,---,0.01,VWS V13.01,2013-10-01 14:30:00,
2013-10-01 10:35:00,60.1,60.1,29.89,WSW,244,1.0,6.0,100,0.00,,---,0.01,VWS V13.01,2013-10-01 14:35:00,
2013-10-01 10:40:00,60.1,60.1,29.89,WSW,246,0.0,6.0,100,0.00,,---,0.01,VWS V13.01,2013-10-01 14:40:00,
2013-10-01 10:46:00,60.5,60.5,29.89,WSW,246,0.0,6.0,100,0.00,,---,0.01,VWS V13.01,2013-10-01 14:46:00,
2013-10-01 10:51:00,60.6,60.6,29.89,West,262,6.0,6.0,100,0.00,,---,0.01,VWS V13.01,2013-10-01 14:51:00,
2013-10-01 10:56:00,60.7,60.7,29.89,West,265,0.0,6.0,100,0.00,,---,0.01,VWS V13.01,2013-10-01 14:56:00,
2013-10-01 11:02:00,61.1,60.8,29.89,West,264,0.0,5.0,99,0.00,,---,0.01,VWS V13.01,2013-10-01 15:02:00,
2013-10-01 11:07:00,61.2,60.9,29.89,West,267,5.0,6.0,99,0.00,,---,0.01,VWS V13.01,2013-10-01 15:07:00,
2013-10-01 11:12:00,61.5,61.2,29.88,West,267,0.0,6.0,99,0.00,,---,0.01,VWS V13.01,2013-10-01 15:12:00,
2013-10-01 11:17:00,61.7,61.4,29.88,West,267,5.0,6.0,99,0.00,,---,0.01,VWS V13.01,2013-10-01 15:17:00,
2013-10-01 11:23:00,62.0,61.1,29.88,West,267,3.0,6.0,97,0.00,,---,0.01,VWS V13.01,2013-10-01 15:23:00,
2013-10-01 11:28:00,62.4,61.2,29.88,West,267,0.0,6.0,96,0.00,,---,0.01,VWS V13.01,2013-10-01 15:28:00,
2013-10-01 11:33:00,62.7,61.2,29.88,West,266,0.0,6.0,95,0.00,,---,0.01,VWS V13.01,2013-10-01 15:33:00,
2013-10-01 11:38:00,63.0,61.2,29.87,West,265,0.0,6.0,94,0.00,,---,0.01,VWS V13.01,2013-10-01 15:38:00,
2013-10-01 11:44:00,63.7,61.6,29.87,West,281,5.0,6.0,93,0.00,,---,0.01,VWS V13.01,2013-10-01 15:44:00,
2013-10-01 11:49:00,64.4,61.7,29.87,West,281,0.0,6.0,91,0.00,,---,0.01,VWS V13.01,2013-10-01 15:49:00,
2013-10-01 11:54:00,65.7,61.7,29.87,West,276,4.0,10.0,87,0.00,,---,0.01,VWS V13.01,2013-10-01 15:54:00,
2013-10-01 11:59:00,65.6,61.3,29.87,WSW,238,5.0,10.0,86,0.00,,---,0.01,VWS V13.01,2013-10-01 15:59:00,
2013-10-01 12:06:00,66.1,60.8,29.87,WNW,287,0.0,14.0,83,0.00,,---,0.01,VWS V13.01,2013-10-01 16:06:00,
2013-10-01 12:11:00,66.0,61.0,29.86,WNW,287,0.0,14.0,84,0.00,,---,0.01,VWS V13.01,2013-10-01 16:11:00,
2013-10-01 12:16:00,66.1,60.8,29.86,West,280,6.0,14.0,83,0.00,,---,0.01,VWS V13.01,2013-10-01 16:16:00,
2013-10-01 12:22:00,65.9,60.6,29.86,West,277,7.0,14.0,83,0.00,,---,0.01,VWS V13.01,2013-10-01 16:22:00,
2013-10-01 12:27:00,66.2,61.2,29.86,WSW,257,6.0,14.0,84,0.00,,---,0.01,VWS V13.01,2013-10-01 16:27:00,
2013-10-01 12:32:00,66.2,60.9,29.86,WSW,257,2.0,7.0,83,0.00,,---,0.01,VWS V13.01,2013-10-01 16:32:00,
2013-10-01 12:37:00,67.1,62.1,29.86,West,265,8.0,11.0,84,0.00,,---,0.01,VWS V13.01,2013-10-01 16:37:00,
2013-10-01 12:43:00,68.0,61.2,29.86,West,261,2.0,12.0,79,0.00,,---,0.01,VWS V13.01,2013-10-01 16:43:00,
2013-10-01 12:48:00,68.6,61.8,29.86,WSW,246,8.0,12.0,79,0.00,,---,0.01,VWS V13.01,2013-10-01 16:48:00,
2013-10-01 12:53:00,68.9,61.4,29.86,West,263,7.0,12.0,77,0.00,,---,0.01,VWS V13.01,2013-10-01 16:53:00,
2013-10-01 12:58:00,69.4,60.8,29.85,West,272,8.0,12.0,74,0.00,,---,0.01,VWS V13.01,2013-10-01 16:58:00,
2013-10-01 13:04:00,69.3,60.7,29.85,WNW,287,9.0,9.0,74,0.00,,---,0.01,VWS V13.01,2013-10-01 17:04:00,
2013-10-01 13:09:00,69.7,60.7,29.85,West,265,5.0,10.0,73,0.00,,---,0.01,VWS V13.01,2013-10-01 17:09:00,
2013-10-01 13:14:00,70.5,61.4,29.84,WSW,253,11.0,12.0,73,0.00,,---,0.01,VWS V13.01,2013-10-01 17:14:00,
2013-10-01 13:20:00,71.0,60.3,29.84,WSW,254,8.0,16.0,69,0.00,,---,0.01,VWS V13.01,2013-10-01 17:20:00,
2013-10-01 13:25:00,71.5,60.8,29.84,West,267,6.0,16.0,69,0.00,,---,0.01,VWS V13.01,2013-10-01 17:25:00,
2013-10-01 13:30:00,71.8,59.4,29.84,WSW,256,8.0,14.0,65,0.00,,---,0.01,VWS V13.01,2013-10-01 17:30:00,
2013-10-01 13:35:00,72.0,60.0,29.84,WSW,252,11.0,14.0,66,0.00,,---,0.01,VWS V13.01,2013-10-01 17:35:00,
2013-10-01 13:40:00,72.4,60.0,29.84,West,273,10.0,15.0,65,0.00,,---,0.01,VWS V13.01,2013-10-01 17:40:00,
2013-10-01 13:46:00,72.4,60.0,29.84,NW,325,7.0,15.0,65,0.00,,---,0.01,VWS V13.01,2013-10-01 17:46:00,
2013-10-01 13:51:00,72.7,59.8,29.84,West,276,8.0,15.0,64,0.00,,---,0.01,VWS V13.01,2013-10-01 17:51:00,
2013-10-01 13:56:00,72.4,60.4,29.83,WSW,247,13.0,16.0,66,0.00,,---,0.01,VWS V13.01,2013-10-01 17:56:00,
2013-10-01 14:02:00,72.1,60.1,29.83,West,263,10.0,14.0,66,0.00,,---,0.01,VWS V13.01,2013-10-01 18:02:00,
2013-10-01 14:07:00,72.2,60.7,29.83,West,265,11.0,16.0,67,0.00,,---,0.01,VWS V13.01,2013-10-01 18:07:00,
2013-10-01 14:12:00,71.7,59.3,29.82,West,261,7.0,16.0,65,0.00,,---,0.01,VWS V13.01,2013-10-01 18:12:00,
2013-10-01 14:17:00,71.7,59.3,29.82,West,263,8.0,16.0,65,0.00,,---,0.01,VWS V13.01,2013-10-01 18:17:00,
2013-10-01 14:24:00,71.5,59.6,29.82,WNW,284,9.0,16.0,66,0.00,,---,0.01,VWS V13.01,2013-10-01 18:24:00,
2013-10-01 14:29:00,72.6,61.0,29.82,West,279,6.0,16.0,67,0.00,,---,0.01,VWS V13.01,2013-10-01 18:29:00,
2013-10-01 14:34:00,73.2,59.0,29.82,NW,310,5.0,10.0,61,0.00,,---,0.01,VWS V13.01,2013-10-01 18:34:00,
2013-10-01 14:39:00,72.9,60.9,29.82,WSW,254,8.0,11.0,66,0.00,,---,0.01,VWS V13.01,2013-10-01 18:39:00,
2013-10-01 14:45:00,73.1,58.4,29.82,WNW,294,5.0,11.0,60,0.00,,---,0.01,VWS V13.01,2013-10-01 18:45:00,
2013-10-01 14:50:00,73.7,58.5,29.81,NW,323,1.0,12.0,59,0.00,,---,0.01,VWS V13.01,2013-10-01 18:50:00,
2013-10-01 14:55:00,73.7,59.9,29.81,WNW,297,7.0,14.0,62,0.00,,---,0.01,VWS V13.01,2013-10-01 18:55:00,
2013-10-01 15:00:00,73.5,59.2,29.81,WSW,244,7.0,13.0,61,0.00,,---,0.01,VWS V13.01,2013-10-01 19:00:00,
2013-10-01 15:07:00,73.8,58.1,29.81,SW,222,8.0,16.0,58,0.00,,---,0.01,VWS V13.01,2013-10-01 19:07:00,
2013-10-01 15:12:00,73.5,58.8,29.81,West,281,9.0,19.0,60,0.00,,---,0.01,VWS V13.01,2013-10-01 19:12:00,
2013-10-01 15:18:00,74.0,59.7,29.80,West,259,8.0,19.0,61,0.00,,---,0.01,VWS V13.01,2013-10-01 19:18:00,
2013-10-01 15:23:00,74.1,59.8,29.80,WNW,286,8.0,19.0,61,0.00,,---,0.01,VWS V13.01,2013-10-01 19:23:00,
2013-10-01 15:28:00,74.4,58.7,29.81,West,265,8.0,19.0,58,0.00,,---,0.01,VWS V13.01,2013-10-01 19:28:00,
2013-10-01 15:34:00,74.2,59.9,29.81,West,271,10.0,13.0,61,0.00,,---,0.01,VWS V13.01,2013-10-01 19:34:00,
2013-10-01 15:39:00,73.9,60.1,29.81,WSW,253,10.0,15.0,62,0.00,,---,0.01,VWS V13.01,2013-10-01 19:39:00,
2013-10-01 15:44:00,74.0,59.2,29.81,WNW,300,7.0,15.0,60,0.00,,---,0.01,VWS V13.01,2013-10-01 19:44:00,
2013-10-01 15:49:00,74.3,59.1,29.80,WSW,245,11.0,15.0,59,0.00,,---,0.01,VWS V13.01,2013-10-01 19:49:00,
2013-10-01 15:54:00,73.7,59.0,29.80,West,267,7.0,15.0,60,0.00,,---,0.01,VWS V13.01,2013-10-01 19:54:00,
2013-10-01 15:59:00,73.9,59.2,29.80,West,261,1.0,15.0,60,0.00,,---,0.01,VWS V13.01,2013-10-01 19:59:00,
2013-10-01 16:05:00,73.9,58.7,29.80,West,266,9.0,14.0,59,0.00,,---,0.01,VWS V13.01,2013-10-01 20:05:00,
2013-10-01 16:10:00,73.5,59.2,29.80,West,260,11.0,14.0,61,0.00,,---,0.01,VWS V13.01,2013-10-01 20:10:00,
2013-10-01 16:15:00,73.5,58.3,29.80,West,263,8.0,14.0,59,0.00,,---,0.01,VWS V13.01,2013-10-01 20:15:00,
2013-10-01 16:21:00,73.8,58.6,29.80,West,267,12.0,14.0,59,0.00,,---,0.01,VWS V13.01,2013-10-01 20:21:00,
2013-10-01 16:26:00,73.7,59.4,29.80,West,265,11.0,15.0,61,0.00,,---,0.01,VWS V13.01,2013-10-01 20:26:00,
2013-10-01 16:31:00,73.8,59.5,29.80,WSW,257,9.0,11.0,61,0.00,,---,0.01,VWS V13.01,2013-10-01 20:31:00,
2013-10-01 16:37:00,73.8,58.6,29.79,WNW,283,8.0,12.0,59,0.00,,---,0.01,VWS V13.01,2013-10-01 20:37:00,
2013-10-01 16:42:00,73.9,59.2,29.80,West,261,11.0,13.0,60,0.00,,---,0.01,VWS V13.01,2013-10-01 20:42:00,
2013-10-01 16:47:00,73.5,59.2,29.80,WSW,257,8.0,14.0,61,0.00,,---,0.01,VWS V13.01,2013-10-01 20:47:00,
2013-10-01 16:53:00,73.3,59.5,29.80,WSW,250,7.0,14.0,62,0.00,,---,0.01,VWS V13.01,2013-10-01 20:53:00,
2013-10-01 16:58:00,73.5,59.2,29.79,West,263,7.0,14.0,61,0.00,,---,0.01,VWS V13.01,2013-10-01 20:58:00,
2013-10-01 17:04:00,73.6,59.3,29.80,WNW,290,7.0,9.0,61,0.00,,---,0.01,VWS V13.01,2013-10-01 21:04:00,
2013-10-01 17:09:00,73.6,59.8,29.79,West,275,5.0,12.0,62,0.00,,---,0.01,VWS V13.01,2013-10-01 21:09:00,
2013-10-01 17:14:00,73.3,59.0,29.79,WNW,291,6.0,13.0,61,0.00,,---,0.01,VWS V13.01,2013-10-01 21:14:00,
2013-10-01 17:19:00,73.2,59.9,29.79,West,259,4.0,13.0,63,0.00,,---,0.01,VWS V13.01,2013-10-01 21:19:00,
2013-10-01 17:24:00,73.3,60.4,29.79,West,265,1.0,13.0,64,0.00,,---,0.01,VWS V13.01,2013-10-01 21:24:00,
2013-10-01 17:30:00,73.3,60.8,29.79,West,265,0.0,13.0,65,0.00,,---,0.01,VWS V13.01,2013-10-01 21:30:00,
2013-10-01 17:35:00,73.2,59.4,29.79,West,268,5.0,8.0,62,0.00,,---,0.01,VWS V13.01,2013-10-01 21:35:00,
2013-10-01 17:40:00,72.8,60.4,29.79,West,263,7.0,9.0,65,0.00,,---,0.01,VWS V13.01,2013-10-01 21:40:00,
2013-10-01 17:46:00,72.0,61.3,29.79,West,259,4.0,9.0,69,0.00,,---,0.01,VWS V13.01,2013-10-01 21:46:00,
2013-10-01 17:51:00,71.7,61.4,29.78,West,259,0.0,9.0,70,0.00,,---,0.01,VWS V13.01,2013-10-01 21:51:00,
2013-10-01 17:56:00,71.5,59.6,29.79,West,259,2.0,9.0,66,0.00,,---,0.01,VWS V13.01,2013-10-01 21:56:00,
2013-10-01 18:02:00,71.5,60.4,29.79,West,259,4.0,4.0,68,0.00,,---,0.01,VWS V13.01,2013-10-01 22:02:00,
2013-10-01 18:07:00,71.1,60.8,29.78,West,259,0.0,4.0,70,0.00,,---,0.01,VWS V13.01,2013-10-01 22:07:00,
2013-10-01 18:12:00,70.5,61.4,29.78,West,259,2.0,4.0,73,0.00,,---,0.01,VWS V13.01,2013-10-01 22:12:00,
2013-10-01 18:17:00,70.1,61.0,29.78,West,259,0.0,4.0,73,0.00,,---,0.01,VWS V13.01,2013-10-01 22:17:00,
2013-10-01 18:23:00,69.9,60.9,29.79,West,259,0.0,4.0,73,0.00,,---,0.01,VWS V13.01,2013-10-01 22:23:00,
2013-10-01 18:28:00,68.9,60.3,29.79,West,259,0.0,4.0,74,0.00,,---,0.01,VWS V13.01,2013-10-01 22:28:00,
2013-10-01 18:33:00,68.5,60.3,29.79,West,259,0.0,0.0,75,0.00,,---,0.01,VWS V13.01,2013-10-01 22:33:00,
2013-10-01 18:38:00,67.7,59.5,29.79,West,259,0.0,2.0,75,0.00,,---,0.01,VWS V13.01,2013-10-01 22:38:00,
2013-10-01 18:43:00,67.0,59.6,29.79,West,259,0.0,3.0,77,0.00,,---,0.01,VWS V13.01,2013-10-01 22:43:00,
2013-10-01 18:49:00,66.2,59.5,29.79,West,259,0.0,3.0,79,0.00,,---,0.01,VWS V13.01,2013-10-01 22:49:00,
2013-10-01 18:54:00,65.4,59.1,29.79,West,259,0.0,3.0,80,0.00,,---,0.01,VWS V13.01,2013-10-01 22:54:00,
2013-10-01 18:59:00,64.2,58.6,29.79,West,259,0.0,3.0,82,0.00,,---,0.01,VWS V13.01,2013-10-01 22:59:00,
2013-10-01 19:05:00,63.4,58.5,29.79,SW,234,0.0,5.0,84,0.00,,---,0.01,VWS V13.01,2013-10-01 23:05:00,
2013-10-01 19:10:00,62.7,58.1,29.79,SW,234,0.0,5.0,85,0.00,,---,0.01,VWS V13.01,2013-10-01 23:10:00,
2013-10-01 19:15:00,61.9,58.0,29.80,SW,234,0.0,5.0,87,0.00,,---,0.01,VWS V13.01,2013-10-01 23:15:00,
2013-10-01 19:20:00,61.3,57.4,29.80,SW,234,0.0,5.0,87,0.00,,---,0.01,VWS V13.01,2013-10-01 23:20:00,
2013-10-01 19:25:00,60.8,57.2,29.79,SW,233,0.0,5.0,88,0.00,,---,0.01,VWS V13.01,2013-10-01 23:25:00,
2013-10-01 19:30:00,60.4,56.8,29.80,SW,234,0.0,0.0,88,0.00,,---,0.01,VWS V13.01,2013-10-01 23:30:00,
2013-10-01 19:35:00,59.8,56.2,29.80,SW,234,0.0,0.0,88,0.00,,---,0.01,VWS V13.01,2013-10-01 23:35:00,
2013-10-01 19:40:00,59.2,56.0,29.80,SW,234,0.0,0.0,89,0.00,,---,0.01,VWS V13.01,2013-10-01 23:40:00,
2013-10-01 19:45:00,58.9,56.6,29.80,SW,234,0.0,0.0,92,0.00,,---,0.01,VWS V13.01,2013-10-01 23:45:00,
2013-10-01 19:51:00,58.3,55.4,29.80,SW,234,0.0,0.0,90,0.00,,---,0.01,VWS V13.01,2013-10-01 23:51:00,
2013-10-01 19:56:00,57.7,55.1,29.81,SW,234,0.0,0.0,91,0.00,,---,0.01,VWS V13.01,2013-10-01 23:56:00,
2013-10-01 20:01:00,57.2,54.9,29.81,SW,234,0.0,0.0,92,0.00,,---,0.01,VWS V13.01,2013-10-02 00:01:00,
2013-10-01 20:06:00,56.9,54.9,29.81,SW,234,0.0,0.0,93,0.00,,---,0.01,VWS V13.01,2013-10-02 00:06:00,
2013-10-01 20:11:00,56.5,54.5,29.81,SW,234,0.0,0.0,93,0.00,,---,0.01,VWS V13.01,2013-10-02 00:11:00,
2013-10-01 20:16:00,56.2,54.5,29.81,SW,233,0.0,0.0,94,0.00,,---,0.01,VWS V13.01,2013-10-02 00:16:00,
2013-10-01 20:22:00,55.9,54.2,29.81,SW,234,0.0,0.0,94,0.00,,---,0.01,VWS V13.01,2013-10-02 00:22:00,
2013-10-01 20:27:00,55.7,54.0,29.81,SW,234,0.0,0.0,94,0.00,,---,0.01,VWS V13.01,2013-10-02 00:27:00,
2013-10-01 20:32:00,55.5,53.8,29.81,SW,234,0.0,0.0,94,0.00,,---,0.01,VWS V13.01,2013-10-02 00:32:00,
2013-10-01 20:37:00,55.1,53.7,29.81,SW,234,0.0,0.0,95,0.00,,---,0.01,VWS V13.01,2013-10-02 00:37:00,
2013-10-01 20:42:00,54.9,53.5,29.81,SW,234,0.0,0.0,95,0.00,,---,0.01,VWS V13.01,2013-10-02 00:42:00,
2013-10-01 20:47:00,54.7,53.3,29.81,SW,233,0.0,0.0,95,0.00,,---,0.01,VWS V13.01,2013-10-02 00:47:00,
2013-10-01 20:52:00,54.4,53.0,29.81,SW,234,0.0,0.0,95,0.00,,---,0.01,VWS V13.01,2013-10-02 00:52:00,
2013-10-01 20:57:00,53.9,52.2,29.81,SW,234,0.0,0.0,94,0.00,,---,0.01,VWS V13.01,2013-10-02 00:57:00,
2013-10-01 21:02:00,53.5,51.8,29.81,SW,234,0.0,0.0,94,0.00,,---,0.01,VWS V13.01,2013-10-02 01:02:00,
2013-10-01 21:07:00,53.3,51.9,29.81,SW,234,0.0,0.0,95,0.00,,---,0.01,VWS V13.01,2013-10-02 01:07:00,
2013-10-01 21:12:00,53.3,51.9,29.81,SW,233,0.0,0.0,95,0.00,,---,0.01,VWS V13.01,2013-10-02 01:12:00,
2013-10-01 21:17:00,53.2,51.8,29.81,SW,234,0.0,0.0,95,0.00,,---,0.01,VWS V13.01,2013-10-02 01:17:00,
2013-10-01 21:23:00,53.1,52.0,29.81,SW,233,0.0,0.0,96,0.00,,---,0.01,VWS V13.01,2013-10-02 01:23:00,
2013-10-01 21:28:00,52.9,51.8,29.82,SW,234,0.0,0.0,96,0.00,,---,0.01,VWS V13.01,2013-10-02 01:28:00,
2013-10-01 21:33:00,52.6,51.2,29.82,SW,233,0.0,0.0,95,0.00,,---,0.01,VWS V13.01,2013-10-02 01:33:00,
2013-10-01 21:38:00,52.5,51.4,29.82,SW,233,0.0,0.0,96,0.00,,---,0.01,VWS V13.01,2013-10-02 01:38:00,
2013-10-01 21:43:00,52.2,51.1,29.82,SW,234,0.0,0.0,96,0.00,,---,0.01,VWS V13.01,2013-10-02 01:43:00,
2013-10-01 21:48:00,51.8,50.7,29.82,SW,234,0.0,0.0,96,0.00,,---,0.01,VWS V13.01,2013-10-02 01:48:00,
2013-10-01 21:53:00,51.7,50.6,29.82,SW,234,0.0,0.0,96,0.00,,---,0.01,VWS V13.01,2013-10-02 01:53:00,
2013-10-01 21:58:00,51.6,50.5,29.82,SW,233,0.0,0.0,96,0.00,,---,0.01,VWS V13.01,2013-10-02 01:58:00,
2013-10-01 22:03:00,51.8,51.0,29.83,SW,233,0.0,0.0,97,0.00,,---,0.01,VWS V13.01,2013-10-02 02:03:00,
2013-10-01 22:08:00,51.9,51.1,29.83,SW,234,0.0,0.0,97,0.00,,---,0.01,VWS V13.01,2013-10-02 02:08:00,
2013-10-01 22:13:00,51.4,50.3,29.83,SW,234,0.0,0.0,96,0.00,,---,0.01,VWS V13.01,2013-10-02 02:13:00,
2013-10-01 22:19:00,51.0,49.9,29.83,SW,234,0.0,0.0,96,0.00,,---,0.01,VWS V13.01,2013-10-02 02:19:00,
2013-10-01 22:24:00,51.1,50.3,29.83,SW,234,0.0,0.0,97,0.00,,---,0.01,VWS V13.01,2013-10-02 02:24:00,
2013-10-01 22:29:00,51.3,50.5,29.83,SW,234,0.0,0.0,97,0.00,,---,0.01,VWS V13.01,2013-10-02 02:29:00,
2013-10-01 22:34:00,51.5,50.7,29.83,SW,233,0.0,0.0,97,0.00,,---,0.01,VWS V13.01,2013-10-02 02:34:00,
2013-10-01 22:39:00,51.3,50.5,29.83,SW,233,0.0,0.0,97,0.00,,---,0.01,VWS V13.01,2013-10-02 02:39:00,
2013-10-01 22:44:00,51.0,50.2,29.83,SW,233,0.0,2.0,97,0.00,,---,0.01,VWS V13.01,2013-10-02 02:44:00,
2013-10-01 22:49:00,50.7,49.9,29.83,SW,234,0.0,2.0,97,0.00,,---,0.01,VWS V13.01,2013-10-02 02:49:00,
2013-10-01 22:54:00,50.5,49.7,29.83,SW,234,0.0,2.0,97,0.00,,---,0.01,VWS V13.01,2013-10-02 02:54:00,
2013-10-01 23:00:00,50.3,49.5,29.82,SW,234,0.0,0.0,97,0.00,,---,0.01,VWS V13.01,2013-10-02 03:00:00,
2013-10-01 23:05:00,50.2,49.4,29.83,SW,234,0.0,0.0,97,0.00,,---,0.01,VWS V13.01,2013-10-02 03:05:00,
2013-10-01 23:10:00,50.1,49.3,29.83,SW,234,0.0,0.0,97,0.00,,---,0.01,VWS V13.01,2013-10-02 03:10:00,
2013-10-01 23:15:00,50.0,49.2,29.83,SW,234,0.0,1.0,97,0.00,,---,0.01,VWS V13.01,2013-10-02 03:15:00,
2013-10-01 23:20:00,49.7,48.9,29.83,SW,233,0.0,1.0,97,0.00,,---,0.01,VWS V13.01,2013-10-02 03:20:00,
2013-10-01 23:25:00,49.3,48.5,29.83,SW,233,0.0,1.0,97,0.00,,---,0.01,VWS V13.01,2013-10-02 03:25:00,
2013-10-01 23:31:00,49.3,48.5,29.83,SW,234,0.0,0.0,97,0.00,,---,0.01,VWS V13.01,2013-10-02 03:31:00,
2013-10-01 23:36:00,49.4,48.6,29.83,SW,234,0.0,0.0,97,0.00,,---,0.01,VWS V13.01,2013-10-02 03:36:00,
2013-10-01 23:41:00,49.4,48.6,29.83,SW,233,0.0,0.0,97,0.00,,---,0.01,VWS V13.01,2013-10-02 03:41:00,
2013-10-01 23:46:00,49.3,48.5,29.83,SW,233,0.0,0.0,97,0.00,,---,0.01,VWS V13.01,2013-10-02 03:46:00,
2013-10-01 23:51:00,49.3,48.8,29.83,SW,233,0.0,0.0,98,0.00,,---,0.01,VWS V13.01,2013-10-02 03:51:00,
2013-10-01 23:56:00,49.2,48.7,29.82,SW,234,0.0,0.0,98,0.00,,---,0.01,VWS V13.01,2013-10-02 03:56:00,